Weather Roundup
Issued by NWS Chicago, IL

Home | Current Version | Previous Version | Graphics & Text | Print | Product List | Glossary On
Versions: 1 2 3 4 5 6 7 8 9 10 11 12 13 14 15 16 17 18 19 20 21 22 23 24 25 26 27 28 29 30 31 32 33 34 35 36 37 38 39 40 41 42 43 44 45 46 47 48 49 50
000
NZUS59 KLOT 230108
HRRLOT

CHICAGO AREA WEATHER ROUNDUP
NATIONAL WEATHER SERVICE CHICAGO/ROMEOVILLE IL
800 PM CDT FRI MAY 22 2015

NOTE: "FAIR" INDICATES FEW OR NO CLOUDS BELOW 12,000 FEET WITH NO
SIGNIFICANT WEATHER AND/OR OBSTRUCTIONS TO VISIBILITY.

* THESE STATIONS ARE NOT UNDER NWS QUALITY CONTROL. THEY ALSO MAY NOT
  REPORT WEATHER SUCH AS PRECIPITATION OR FOG.

ILZ005-006-012>014-019>023-230200-
NORTHEAST ILLINOIS

CITY           SKY/WX    TMP DP  RH WIND       PRES   REMARKS
OHARE          CLOUDY    55  27  34 E8        30.26R
MIDWAY         CLOUDY    56  30  37 E12       30.27R
AURORA         CLOUDY    61  29  29 E10       30.24R
LANSING*       CLOUDY    54  32  43 NE5       30.26S
JOLIET*        CLOUDY    60  35  38 E8        30.24S
WAUKEGAN       MOCLDY    48  31  51 E7        30.27R
DUPAGE AIRPORT CLOUDY    58  29  33 E10       30.24R
WHEELING       CLOUDY    53  26  35 E3        30.29R
KANKAKEE*      MOCLDY    63  37  38 NE8       30.24R
MORRIS*        MOCLDY    62  35  37 E8        30.22R
LEWIS AIRPORT* CLOUDY    58  31  36 E12       30.24S
NORTHERLY IS     N/A     50  34  54 NE8         N/A
$$

WIZ051-052-058>065-066-070>072-230200-
SOUTHEAST WISCONSIN

CITY           SKY/WX    TMP DP  RH WIND       PRES   REMARKS
MILWAUKEE      MOCLDY    48  27  44 SE8       30.28S
KENOSHA*       MOCLDY    50  27  40 E8        30.28R
RACINE*        MOCLDY    48  30  49 E6        30.29S
BURLINGTON     MOCLDY    54  27  35 E8        30.27R
WAUKESHA       MOCLDY    54  27  35 E8        30.28R
WEST BEND      MOCLDY    50  23  34 SE3       30.27S
$$

INZ001>003-010>013-019-020-230200-
NORTHWEST INDIANA

CITY           SKY/WX    TMP DP  RH WIND       PRES   REMARKS
GARY*          CLOUDY    55  37  50 E9        30.27R
MICHIGAN CITY* NOT AVBL
RENSSELAER*    NOT AVBL
VALPARAISO     CLOUDY    58  34  40 NE7       30.27R
$$

LMZ740>746-230200-
SOUTHERN LAKE MICHIGAN

STATION/POSITION TIME  SKY/WX   TEMP WIND        PRES    VSBY
                                AIR  DIR/SP/G
                 (UTC)          (F)  (DEG/KT/KT) (MB)    (MI)
HARRISON CRIB    0000            48   90/  9/ 10   N/A
BURNHAM HARBOR   0100            50   40/  6/  8   N/A
CALUMET HARBOR   0012            51   50/  9/ 10   N/A
BURNS HARBOR     0000            53   70/ 14/ 16 1025.1F
MICHIGAN CITY    0000            52   30/ 11/ 12   N/A
$$

ABBREVIATIONS USED IN REMARKS
   TC - TEMPERATURE IN CELSIUS
  WCI - WIND CHILL INDEX
   HX - HEAT INDEX
  VSB - VISIBILITY
$$



USA.gov is the U.S. government's official web portal to all federal, state and local government web resources and services.